GFSGL_925_spd_231.txt.gz
Wind_Speed
18 19 19 19 18 16 17 19 19 19 20 21 17 18 18 21 18 21 21 22 21 18 18 18 17 13 12 12 11 11 12 11 4 7 12 16 17 15 15 13 14 13 13
19 18 19 20 16 19 18 18 19 21 18 15 16 15 16 18 16 20 19 19 18 18 18 18 17 14 14 13 13 14 13 12 8 5 13 16 16 14 15 15 15 13 13
17 18 18 21 18 18 17 19 18 18 18 20 21 18 17 17 18 18 19 18 19 18 18 16 17 18 17 15 13 12 13 13 11 8 6 10 14 16 18 18 18 19 16
16 17 18 20 18 15 14 17 21 21 23 25 24 24 23 24 22 21 17 16 17 19 18 17 17 17 17 16 14 12 12 11 10 10 11 14 13 17 14 19 23 23 23
14 16 18 17 17 19 18 18 19 18 21 22 23 24 25 25 23 19 17 16 16 17 19 17 13 14 15 13 12 14 13 12 11 10 10 12 14 16 14 18 21 23 24
13 15 14 15 18 18 18 17 15 17 18 18 20 24 24 23 20 17 13 11 11 15 18 17 14 15 19 17 13 12 10 14 15 9 6 11 12 14 17 19 18 14 5
10 11 11 13 13 12 14 15 9 12 14 13 15 19 24 28 25 25 13 7 9 12 20 20 19 18 20 23 21 18 16 17 14 15 14 15 14 17 18 20 21 21 13
7 8 10 11 11 12 13 12 10 9 9 10 14 19 24 28 29 27 28 18 7 11 18 19 19 19 18 20 20 18 16 17 17 15 13 16 17 17 19 17 15 17 16
5 6 8 7 10 14 17 17 15 12 8 5 8 15 20 23 26 24 24 25 10 11 16 15 18 18 17 17 19 20 17 13 13 14 14 12 14 11 16 16 16 15 7
6 6 6 9 11 15 20 23 23 13 9 5 3 11 17 21 20 20 22 23 24 22 15 19 20 22 23 19 18 18 15 14 12 14 17 17 17 16 17 15 13 12 9
2 7 10 14 12 15 15 18 22 26 31 17 13 14 21 24 18 16 19 22 23 23 20 28 26 23 19 20 16 14 15 18 7 14 17 17 19 19 17 17 13 12 10
5 6 7 8 12 17 20 18 16 18 20 21 20 19 20 23 21 21 18 18 22 24 25 28 22 22 20 23 18 14 11 14 6 13 12 18 21 19 21 19 12 14 7
6 1 8 8 6 9 16 20 21 20 19 15 17 19 21 19 18 22 24 28 28 30 28 22 21 22 23 24 25 19 16 15 14 15 15 17 18 19 19 16 16 13 8
7 8 3 2 6 6 7 10 14 16 17 17 16 15 19 18 18 23 27 30 27 28 23 23 24 22 22 24 26 23 14 13 18 13 12 20 25 21 21 19 19 17 15
3 6 7 9 5 3 1 3 6 9 11 12 13 14 16 20 19 21 24 27 23 27 22 23 26 27 25 26 28 22 15 15 13 13 19 22 18 18 16 18 17 18 13
7 8 9 7 3 9 8 5 2 1 3 6 9 11 13 15 20 20 24 21 22 25 28 23 26 28 27 27 31 24 25 19 10 17 19 22 18 17 17 16 15 14 13
6 6 9 7 9 13 9 7 4 3 3 3 7 13 14 18 21 17 18 20 19 23 26 24 25 28 28 28 28 24 23 26 14 19 22 23 19 18 16 15 14 13 11
7 6 7 10 9 7 12 13 1 2 1 4 11 13 14 17 16 12 14 18 18 22 23 24 25 26 27 27 27 25 26 27 27 20 23 23 20 17 15 14 14 13 11
7 4 5 9 12 12 8 8 8 7 1 7 7 12 13 16 14 15 18 17 18 20 21 23 24 25 27 27 27 26 27 26 26 23 22 21 20 17 15 14 15 14 9
11 7 8 11 15 8 11 12 10 10 5 9 2 7 10 11 11 12 15 15 15 17 18 20 21 25 26 27 27 26 25 27 27 25 23 20 20 17 14 14 14 10 8
10 14 12 12 1 8 11 7 8 11 14 0 1 3 6 8 8 12 12 13 14 15 14 17 19 23 25 29 28 26 26 29 28 26 23 21 21 17 15 14 9 8 8
10 16 11 11 3 4 6 11 12 3 8 9 3 5 5 6 7 10 10 10 13 12 11 15 17 21 25 29 29 26 29 28 28 31 24 22 19 16 12 10 8 8 9
10 14 11 3 2 8 4 7 12 5 7 7 4 4 6 7 6 7 10 9 10 10 8 12 16 20 25 29 30 28 30 27 25 30 23 21 18 15 11 9 9 8 8
11 17 7 5 6 6 9 8 10 11 10 11 4 7 8 9 3 4 6 7 7 8 6 8 13 20 26 29 31 31 30 27 23 28 20 18 17 14 10 9 9 8 9
17 10 5 6 9 11 14 11 13 5 9 13 8 12 5 9 7 10 4 6 6 7 5 5 12 20 26 29 31 31 29 26 25 29 20 17 16 14 13 12 10 13 10
10 5 5 5 6 9 11 16 16 15 21 18 13 12 11 11 8 11 13 15 9 6 4 5 11 20 27 29 30 31 27 27 24 30 21 17 18 15 14 16 13 12 13

GFSGL_925_spd_234.txt.gz
Wind_Speed
18 17 20 18 18 18 18 18 18 19 19 19 17 15 17 19 20 18 19 19 18 18 17 17 16 14 14 14 13 11 11 9 3 7 9 10 13 14 16 15 14 14 13
16 14 17 16 17 15 17 18 19 20 22 21 19 18 18 18 19 19 18 18 18 19 19 20 20 18 17 15 15 13 11 10 4 4 7 11 14 14 16 17 19 17 15
14 13 15 15 14 12 14 17 19 20 21 25 23 24 23 21 17 15 15 17 18 17 16 16 16 16 16 14 12 10 10 9 8 5 7 12 13 15 16 18 21 22 19
12 13 14 14 14 13 14 15 14 14 18 19 20 20 21 21 19 17 15 15 16 16 15 11 13 14 16 14 12 10 11 11 9 10 9 12 12 16 15 17 23 24 25
9 11 11 12 13 14 15 13 12 13 15 16 20 22 22 21 16 10 10 11 14 18 17 14 13 15 17 14 11 13 11 14 15 12 8 9 14 18 17 16 19 20 21
7 9 10 9 11 13 14 14 11 11 13 13 15 20 23 23 22 14 3 6 9 15 17 18 15 16 19 19 17 13 11 13 13 6 6 9 11 15 14 18 17 9 4
7 6 9 8 12 16 17 16 12 9 10 10 14 19 22 24 20 21 9 6 6 11 15 18 18 18 18 19 17 13 11 14 13 11 11 13 13 17 16 18 15 14 11
3 4 8 11 15 20 17 15 12 8 6 4 10 15 18 20 20 20 18 12 13 13 17 19 22 22 18 17 17 17 14 11 12 12 11 12 14 12 13 12 12 13 14
2 5 10 14 18 15 15 19 13 10 4 1 8 15 20 16 18 18 18 19 18 17 19 20 22 20 20 15 17 14 14 11 9 10 8 11 12 12 13 12 14 11 6
4 9 12 12 9 8 9 14 20 14 12 7 7 15 19 20 16 17 18 20 21 22 23 20 21 20 20 18 16 11 11 13 11 12 11 14 15 13 14 13 12 10 7
6 9 7 8 11 11 6 9 12 15 13 11 10 11 14 16 18 19 21 22 22 22 24 22 23 22 21 24 20 12 11 12 7 11 11 16 18 16 18 13 13 8 9
8 11 2 3 6 12 15 16 17 16 13 13 14 17 16 16 19 24 25 26 26 23 24 24 22 21 22 24 22 12 8 8 12 13 14 19 24 19 17 14 13 10 9
9 10 5 4 3 4 9 11 14 15 16 15 16 18 17 17 21 26 24 23 25 21 21 23 23 22 23 24 23 14 9 15 14 12 14 22 22 19 16 16 14 11 11
12 9 9 8 7 5 3 4 6 9 11 11 13 15 17 18 22 25 26 21 22 22 20 23 24 24 25 26 22 22 16 15 13 12 19 21 20 17 17 16 15 14 11
3 5 5 12 15 13 10 7 5 2 3 6 7 9 13 18 22 23 24 18 20 21 20 23 25 26 27 28 26 19 24 24 16 16 16 22 18 18 15 17 14 12 11
3 6 8 6 6 9 13 14 11 8 5 5 8 10 13 16 17 14 14 13 17 18 19 21 23 24 24 26 26 22 26 24 24 18 18 18 19 17 16 17 15 13 10
6 10 11 11 11 11 9 8 10 7 7 5 7 5 7 13 9 9 11 10 15 14 16 19 20 23 25 25 25 23 26 27 26 24 23 17 18 17 16 15 14 13 11
7 9 9 10 11 13 13 11 8 10 6 2 5 4 7 7 6 7 7 8 12 13 13 16 19 21 25 25 26 25 26 28 25 22 21 20 17 16 15 14 13 13 12
11 13 11 11 12 7 7 6 8 6 7 7 1 1 4 3 4 6 7 8 8 8 11 14 18 21 25 26 25 25 26 26 24 22 20 19 17 16 15 13 14 13 8
12 14 15 17 15 8 7 5 5 7 2 10 8 4 3 1 2 4 5 5 6 5 9 12 17 21 24 28 27 27 28 27 25 23 21 18 19 16 13 13 13 9 9
14 15 16 19 15 13 7 7 8 11 7 4 8 8 4 2 2 2 3 4 5 4 8 11 16 21 24 28 28 28 29 27 26 26 22 19 18 15 12 10 8 8 6
14 15 15 19 6 9 9 9 11 11 11 8 6 6 5 3 3 2 2 2 3 4 6 10 15 21 24 27 29 28 30 28 25 29 23 20 17 14 10 8 8 8 8
12 15 19 10 8 6 9 10 10 7 6 6 3 1 2 2 6 3 1 1 4 4 3 8 14 21 26 28 29 28 27 26 27 25 20 19 17 11 8 9 6 8 8
14 17 15 8 3 4 10 9 12 7 8 7 7 1 3 6 3 5 10 3 4 3 1 7 15 22 27 30 31 27 26 25 26 20 17 17 15 12 9 8 9 9 5
13 14 9 1 6 14 20 24 23 19 12 11 11 9 10 9 6 8 4 8 11 6 0 8 16 23 27 29 30 26 26 26 23 19 18 15 14 12 10 9 8 8 8
14 10 8 15 22 19 20 20 21 20 14 14 12 11 11 10 9 7 5 4 6 11 4 11 18 23 26 29 28 26 25 25 22 21 18 16 16 12 13 14 12 9 14

GFSGL_925_spd_237.txt.gz
Wind_Speed
15 14 15 15 14 14 15 17 18 17 17 17 16 15 15 16 15 17 18 19 21 20 20 21 20 17 16 15 13 11 10 8 2 5 9 11 12 12 13 13 15 16 16
14 14 15 14 14 15 16 15 18 20 20 20 19 20 20 18 17 19 19 19 20 19 17 18 17 18 15 13 12 11 10 8 5 4 8 12 14 13 15 15 18 19 20
13 15 15 16 15 16 16 13 15 19 20 21 21 21 20 18 16 16 17 19 20 18 16 13 16 18 17 14 11 10 10 10 8 6 7 12 17 16 20 17 21 23 21
12 12 14 14 14 16 15 14 16 18 19 19 20 19 18 15 10 10 12 16 18 18 16 14 14 16 17 16 12 11 11 14 13 12 9 11 14 16 15 16 23 24 25
11 11 11 11 14 15 16 15 13 14 16 14 18 20 18 18 15 4 7 13 14 16 16 16 15 15 16 16 15 13 13 17 16 12 9 9 14 17 17 15 19 21 23
8 8 9 11 14 16 14 12 10 11 12 13 17 19 19 18 17 6 6 9 12 15 18 18 17 16 15 14 13 9 9 11 13 10 6 10 13 17 15 17 17 7 4
6 7 10 13 17 17 15 11 7 6 7 8 13 17 15 17 17 13 10 10 12 14 16 18 22 18 14 13 12 11 9 8 8 9 11 10 14 18 15 18 17 13 11
4 8 12 15 15 14 16 17 9 4 2 3 10 15 12 15 15 13 12 12 15 16 18 16 16 18 17 14 13 13 12 10 8 8 11 11 13 13 15 15 16 18 16
5 10 13 13 13 12 12 15 12 5 2 2 7 13 15 14 15 16 16 17 17 18 17 19 18 17 20 18 14 13 10 10 10 7 10 10 14 13 14 14 16 15 7
7 10 10 10 13 9 7 9 10 8 7 3 7 10 11 14 16 18 17 16 16 17 18 18 17 18 21 18 17 11 9 11 9 10 12 12 15 18 15 15 14 13 10
6 9 8 9 10 11 8 6 5 6 5 7 9 9 10 14 19 20 19 20 17 18 20 21 19 20 21 20 16 12 9 8 12 12 11 14 22 20 15 14 12 11 11
6 9 9 6 6 9 9 9 10 9 9 11 11 10 12 15 20 20 18 20 17 16 18 19 19 20 22 19 18 11 12 16 16 14 13 22 25 21 19 14 13 11 9
8 10 10 8 6 6 7 8 8 8 8 10 11 11 12 15 18 15 13 15 15 13 16 18 20 21 21 21 16 17 20 22 20 16 18 22 20 22 18 16 12 10 11
9 9 8 9 10 9 9 10 9 7 7 7 8 10 13 14 15 15 11 13 13 12 16 21 22 20 21 22 20 17 22 21 21 20 22 18 21 18 18 16 14 14 13
5 6 8 9 10 12 13 15 15 12 10 12 10 11 13 16 13 12 10 11 12 11 16 20 23 26 27 29 28 24 23 25 26 25 22 19 17 17 15 17 13 13 9
4 5 7 9 11 12 12 14 12 14 12 14 14 14 14 13 10 8 8 7 9 11 15 17 20 23 26 28 27 27 26 28 27 25 19 18 17 16 15 16 14 12 11
7 10 11 10 12 14 14 12 13 10 10 10 9 11 11 9 6 7 7 6 9 10 13 16 18 21 26 29 27 27 26 27 25 20 20 18 19 15 14 14 13 12 11
10 13 14 14 16 18 15 10 9 11 13 10 7 7 7 7 6 7 7 6 9 9 10 13 17 21 24 29 29 29 27 27 22 23 20 18 17 15 13 13 12 12 11
10 12 15 16 17 17 13 11 9 7 9 11 10 8 8 7 8 7 8 6 8 9 9 12 16 21 25 29 30 29 28 27 24 21 20 18 16 15 14 12 13 11 10
11 13 15 17 18 15 13 13 11 10 11 10 12 14 10 8 8 12 9 7 8 9 9 11 16 21 26 29 31 31 31 30 23 24 20 18 17 15 12 12 11 9 7
12 16 17 19 21 13 13 14 15 14 15 13 13 14 11 11 13 12 9 7 9 10 9 11 16 22 27 30 32 31 31 29 25 24 20 18 17 15 11 9 8 8 7
15 16 17 19 15 10 11 15 13 14 14 12 13 9 9 9 13 12 9 7 11 10 7 11 17 23 27 30 30 29 31 27 27 23 21 19 16 11 10 8 7 8 7
11 14 19 15 11 9 10 8 9 11 7 9 7 3 2 10 9 9 9 11 10 7 5 11 18 24 28 31 29 27 29 25 25 21 19 17 13 11 9 10 10 7 5
12 14 11 9 6 5 6 9 9 6 6 9 7 6 6 8 0 6 12 10 6 4 4 11 18 23 28 30 30 27 27 22 22 18 16 15 12 10 10 8 8 8 10
9 6 6 7 12 11 12 13 12 11 11 13 11 10 9 8 9 9 6 6 6 9 4 12 20 24 28 28 28 27 24 22 20 17 15 13 11 11 10 10 9 10 9
3 10 14 13 12 12 12 13 12 10 10 12 12 12 11 11 11 10 8 6 8 5 9 16 19 23 27 27 26 27 25 23 18 16 17 15 18 12 10 11 15 16 11

GFSGL_925_spd_240.txt.gz
Wind_Speed
12 13 13 15 14 14 14 17 18 18 19 18 18 17 15 16 17 18 19 18 17 14 15 16 17 16 14 14 13 12 11 9 3 5 10 13 15 15 14 16 16 19 21
12 13 15 15 15 15 13 17 18 19 18 19 18 17 16 14 15 16 18 20 19 18 15 16 18 18 15 12 10 9 9 8 4 7 11 13 16 15 15 16 15 17 19
11 13 14 16 16 16 14 15 16 17 18 19 19 18 16 11 9 12 16 18 19 18 17 16 17 19 20 18 13 12 12 12 11 8 9 14 16 15 19 18 18 20 20
10 10 13 15 15 15 15 14 15 16 17 19 20 19 17 17 11 8 12 14 16 16 16 15 14 14 14 15 14 12 11 12 11 9 9 11 13 16 17 19 19 23 23
8 9 12 13 14 12 10 10 11 12 14 16 19 18 17 18 17 8 9 11 13 16 16 16 16 15 13 11 11 12 12 12 12 12 9 8 9 13 13 14 12 21 19
6 8 11 12 14 14 13 9 6 6 9 13 18 17 15 17 16 12 10 12 14 15 18 20 18 14 14 13 12 11 10 12 12 8 6 7 10 13 16 15 14 13 5
5 7 10 12 13 14 16 15 8 4 5 8 14 17 12 14 14 12 13 12 14 15 15 14 15 14 17 17 16 15 15 12 12 11 12 13 11 15 17 15 16 14 14
4 6 10 12 12 12 13 17 13 6 3 5 11 14 12 12 14 13 14 14 15 14 13 14 16 17 18 19 19 19 18 12 11 11 11 13 12 16 15 16 17 17 18
4 8 11 13 14 9 9 13 13 9 5 5 8 10 11 14 15 15 16 15 15 16 17 17 17 18 20 21 21 20 15 14 11 8 11 11 12 18 21 18 14 14 12
4 8 10 11 12 11 9 9 9 8 6 6 7 6 9 12 14 14 16 15 15 16 17 19 20 21 21 21 20 17 16 15 16 17 16 14 17 24 20 14 15 13 13
4 7 9 8 10 12 11 12 11 8 7 7 5 5 8 12 14 14 15 17 15 16 18 20 21 21 22 20 18 17 17 19 20 20 18 16 22 21 18 17 14 13 14
4 7 8 7 6 7 9 9 10 10 9 9 7 6 10 13 14 14 13 15 14 13 16 19 21 21 22 22 20 17 19 22 21 18 16 17 19 19 20 17 14 14 13
5 7 8 6 6 7 9 9 9 9 9 9 10 11 12 14 14 14 11 12 13 13 16 19 21 23 24 26 23 20 19 20 19 17 17 17 18 18 20 17 16 9 12
6 7 8 8 7 9 11 12 12 11 12 12 12 14 15 17 15 16 14 11 12 11 15 19 21 24 28 28 27 25 22 20 17 21 20 19 19 17 17 14 15 14 13
5 6 8 8 10 12 12 11 13 13 13 15 16 16 17 20 17 17 14 12 12 10 14 20 24 27 29 28 26 24 21 19 19 19 19 18 18 17 14 14 13 13 10
5 6 9 10 12 14 16 18 10 11 10 13 14 16 18 19 17 14 12 10 11 12 14 17 20 23 21 24 25 25 21 20 20 21 19 18 16 16 14 14 12 11 10
6 7 10 12 12 14 17 16 14 14 13 11 12 13 15 17 16 12 11 11 11 13 14 16 18 20 22 24 25 23 23 22 22 18 21 18 16 14 14 13 12 11 11
7 8 10 12 15 17 15 14 13 13 17 17 10 13 13 14 14 12 11 11 12 14 14 15 18 22 23 24 26 25 25 25 25 24 21 18 16 14 13 12 11 11 9
6 8 11 13 16 17 16 13 13 14 14 17 18 13 14 12 12 10 15 12 11 14 16 16 18 23 26 25 25 23 24 25 26 22 19 16 15 15 13 12 12 9 9
6 8 12 14 17 20 16 12 14 15 17 19 20 17 16 14 11 11 22 17 13 16 13 13 18 24 27 26 25 24 27 28 26 23 21 17 17 15 12 11 11 10 8
7 10 12 15 18 17 12 12 16 16 15 17 17 14 13 9 9 12 15 12 11 13 11 12 18 24 27 27 27 28 28 27 25 24 22 19 17 13 11 10 9 9 9
8 9 11 16 15 11 10 13 14 14 14 13 14 12 9 7 8 14 15 12 12 9 7 11 18 23 28 28 28 31 28 27 25 24 21 19 16 13 11 13 11 9 10
4 7 11 10 8 7 8 11 12 11 10 11 11 12 12 12 12 9 11 12 8 6 8 14 20 26 28 27 28 31 26 26 25 22 19 17 14 13 13 11 8 9 12
3 6 8 4 3 5 8 10 12 11 12 12 13 14 14 14 14 13 12 11 8 10 11 16 21 24 28 27 29 29 28 23 18 21 19 17 15 13 12 12 12 11 9
5 3 1 6 7 9 9 11 11 11 12 13 13 14 13 13 14 14 11 10 10 11 14 18 22 26 28 26 29 31 25 24 20 17 17 17 11 12 13 12 12 9 9
3 9 10 8 8 9 9 10 12 13 13 13 13 14 14 15 15 15 14 10 10 13 15 18 24 26 27 26 30 31 25 26 19 15 16 14 12 15 12 12 11 11 13

GFSGL_925_spd_246.txt.gz
Wind_Speed
6 6 7 7 6 8 9 10 11 12 12 12 11 9 10 11 12 11 11 12 13 13 14 14 14 14 15 15 13 13 13 15 12 18 18 18 17 16 17 17 17 17 17
4 5 6 6 7 8 8 9 10 11 12 11 10 10 10 9 8 10 10 11 12 13 14 14 15 16 16 14 17 14 10 12 13 15 16 16 11 13 13 18 16 17 18
2 3 4 5 5 6 6 7 8 9 11 13 10 10 10 10 8 9 10 12 13 14 14 15 16 16 16 18 18 17 19 16 19 17 18 17 16 11 16 17 15 15 18
3 3 3 4 4 5 5 5 6 7 9 12 11 10 10 11 11 12 13 13 14 15 15 15 15 16 16 17 19 20 21 22 20 16 16 19 15 13 16 20 22 16 15
4 2 2 3 3 5 6 6 4 5 7 10 12 10 10 10 13 14 14 14 14 15 16 16 17 14 18 20 19 21 21 22 24 22 19 18 17 18 15 14 23 22 18
5 2 0 2 3 5 6 7 4 4 6 8 11 11 11 11 15 16 16 13 14 15 16 17 18 16 20 23 23 24 22 21 21 21 22 20 20 21 18 16 21 23 13
5 2 1 3 4 5 5 7 6 5 4 6 8 8 9 10 15 16 15 13 14 15 16 17 20 21 20 25 26 23 20 19 11 13 19 21 22 20 21 20 24 24 25
5 1 2 4 4 2 4 5 5 5 5 6 6 6 8 9 13 14 15 12 15 14 14 16 18 21 21 24 25 24 22 20 14 17 19 22 23 24 23 23 25 27 23
5 1 2 2 3 5 6 5 5 5 5 4 3 5 7 8 12 14 16 15 15 15 13 15 13 21 24 25 24 25 23 22 20 21 21 23 22 22 20 16 18 18 16
5 3 2 4 4 6 5 5 6 5 5 4 3 4 7 8 11 13 14 16 16 18 15 14 11 21 24 25 23 23 27 26 26 23 20 16 16 15 11 12 14 15 14
5 4 3 3 2 1 1 2 3 4 4 5 5 6 7 7 9 12 13 12 15 18 17 17 18 22 25 23 20 23 26 24 22 21 17 18 19 17 13 12 13 16 14
6 5 4 3 3 3 4 5 5 5 6 6 5 8 7 6 9 9 12 11 12 14 18 18 19 23 22 26 17 24 26 22 21 23 19 18 20 18 17 17 17 15 15
7 5 5 4 5 5 6 7 8 6 8 9 9 9 9 9 10 7 9 12 12 14 15 20 20 21 20 22 26 20 23 23 24 24 23 17 19 18 19 17 16 11 13
7 5 4 5 4 5 6 6 8 8 9 11 11 11 12 12 11 10 15 16 15 18 18 23 20 17 26 26 28 27 25 22 24 21 20 19 18 18 16 16 13 13 13
6 5 5 7 6 6 7 8 9 9 9 10 12 13 14 14 11 11 12 14 15 17 18 20 21 22 22 25 29 28 23 27 21 19 18 17 19 18 14 12 11 12 10
7 7 4 6 5 5 7 9 6 7 9 11 13 13 15 18 21 16 12 12 13 14 14 16 17 19 21 22 25 26 22 27 23 21 22 20 18 18 14 14 12 10 11
6 4 7 6 6 6 8 10 11 8 8 11 13 15 15 17 17 14 13 10 18 15 11 20 19 18 21 22 25 27 24 26 24 23 21 19 18 16 16 15 13 11 10
6 6 8 8 7 8 9 11 10 9 12 15 13 9 12 12 15 8 6 12 17 6 18 18 19 16 20 24 24 25 24 25 24 25 21 19 17 16 16 12 12 10 10
8 8 7 7 8 9 10 10 10 10 13 16 16 12 3 13 11 5 4 14 17 15 16 16 17 19 20 24 25 23 24 26 24 21 21 19 19 17 14 11 10 11 10
9 9 8 9 10 9 9 10 11 13 15 16 17 15 17 17 14 12 11 14 13 16 16 17 17 17 22 24 24 22 26 26 25 21 21 19 15 13 11 12 10 11 10
7 6 8 10 10 8 9 10 12 14 14 15 15 11 14 12 13 14 16 16 15 16 17 17 19 21 23 24 23 22 29 26 26 22 22 21 16 14 12 12 11 12 10
7 7 7 7 8 7 9 10 12 13 14 14 14 11 13 12 13 14 14 15 14 12 15 18 19 21 23 24 23 27 30 26 25 22 21 19 16 14 15 14 12 9 7
7 7 7 6 5 5 6 10 10 13 13 12 12 11 12 13 14 13 11 10 13 15 16 16 19 22 23 23 21 30 27 24 20 18 18 17 18 14 12 10 9 7 6
6 5 5 3 5 6 9 9 10 9 10 10 10 11 12 12 12 11 10 11 13 14 15 18 20 22 22 24 30 30 23 18 16 17 16 16 14 11 10 9 8 7 7
3 2 1 3 5 7 8 9 8 9 9 10 10 10 10 10 10 11 11 11 12 14 17 18 21 22 24 27 32 24 19 15 16 15 12 12 12 10 11 11 11 12 15
2 3 4 5 7 8 8 7 8 9 9 9 9 9 10 10 10 10 10 12 13 16 18 19 22 23 25 33 30 22 19 14 12 14 13 12 13 14 14 15 14 15 16